Location: Temiskaming Shores
(47.4794°N, 79.7121°W)
Time: 18:41:38
(UTC-04:00)

ISS - Visible Passes

Search period start: 22 July 2019 00:00
Search period end: 01 August 2019 00:00
Orbit: 409 x 418 km, 51.6° (Epoch: 22 July)

Date Brightness Start Highest point End Pass type
(mag) Time Alt. Az. Time Alt. Az. Time Alt. Az.
22 Jul -2.3 00:01:45 10° WNW 00:04:54 38° N 00:07:44 12° ENE visible
22 Jul -2.4 01:38:33 10° WNW 01:40:32 33° WNW 01:40:32 33° WNW visible
22 Jul -2.3 23:12:20 10° WNW 23:15:31 38° N 23:18:40 10° ENE visible
23 Jul -3.2 00:49:15 10° WNW 00:52:24 57° N 00:52:24 57° N visible
23 Jul -2.5 22:22:53 10° W 22:26:06 41° N 22:29:18 10° ENE visible
23 Jul -2.8 23:59:56 10° WNW 00:03:10 46° NNE 00:04:24 30° ENE visible
24 Jul -1.2 01:36:40 10° WNW 01:37:12 14° WNW 01:37:12 14° WNW visible
24 Jul -2.5 23:10:34 10° WNW 23:13:47 40° N 23:16:29 13° ENE visible
25 Jul -2.4 00:47:19 10° WNW 00:49:17 33° WNW 00:49:17 33° WNW visible
25 Jul -2.4 22:21:09 10° WNW 22:24:20 38° N 22:27:29 10° ENE visible
25 Jul -3.7 23:58:00 10° WNW 00:01:20 72° NNE 00:01:25 71° NE visible
26 Jul -2.4 21:31:42 10° WNW 21:34:53 39° N 21:38:03 10° ENE visible
26 Jul -3.2 23:08:39 10° WNW 23:11:57 54° NNE 23:13:35 26° E visible
27 Jul -1.4 00:45:27 10° WNW 00:46:23 17° W 00:46:23 17° W visible
27 Jul -2.8 22:19:17 10° WNW 22:22:30 44° N 22:25:44 10° E visible
27 Jul -3.1 23:56:00 10° WNW 23:58:35 45° W 23:58:35 45° W visible
28 Jul -2.5 21:29:52 10° WNW 21:33:03 40° N 21:36:14 10° ENE visible
28 Jul -3.9 23:06:37 10° WNW 23:09:58 89° WSW 23:10:47 48° ESE visible
29 Jul -3.5 22:17:15 10° WNW 22:20:35 66° NNE 22:23:03 17° E visible
29 Jul -1.9 23:54:11 10° W 23:55:52 21° WSW 23:55:52 21° WSW visible
30 Jul -3.1 21:27:51 10° WNW 21:31:08 51° NNE 21:34:25 10° E visible
30 Jul -3.3 23:04:37 10° WNW 23:07:49 43° SSW 23:08:08 41° SSW visible
31 Jul -3.7 22:15:09 10° WNW 22:18:30 67° SSW 22:20:26 22° SE visible
31 Jul -1.0 23:53:09 10° WSW 23:53:16 10° WSW 23:53:16 10° WSW visible
